User: anonymous   Login
Location: Edmonton
(53.5500°N, 113.5000°W)
Time: 20:00:48
(UTC-06:00)
Language:

CZ-4C R/B - Orbit

View from above orbital plane
View from above orbital plane
View from above satellite
View from above satellite

Ground track
Ground track

The orbit data is extracted from the following two-line orbital elements,

1 36416U 10009D   16267.46798562 -.00000050 +00000-0 +33719-4 0  9992
2 36416 063.4402 259.1658 0360765 357.0253 002.8637 13.69501015327682
Epoch (UTC): 23 September 2016 11:13:53
Eccentricity: 0.0360765
inclination: 63.4402°
perigee height: 735 km
apogee height: 1267 km
right ascension of ascending node: 259.1658°
argument of perigee: 357.0253°
revolutions per day: 13.69501015
mean anomaly at epoch: 2.8637°
orbit number at epoch: 32768

The dashed part of the orbit path shows where the satellite is in the earth's shadow,  

DLR